Location: Bratislava
(48.1500°N, 17.1170°E)
Time: 01:33:23
(UTC+02:00)

Tiangong 2 - Visible Passes

Search period start: 18 August 2017 00:00
Search period end: 28 August 2017 00:00
Orbit: 389 x 395 km, 42.8° (Epoch: 17 August)

Date Brightness Start Highest point End Pass type
(mag) Time Alt. Az. Time Alt. Az. Time Alt. Az.
20 Aug 3.3 05:16:14 10° SSW 05:18:28 17° SSE 05:20:42 10° ESE visible
21 Aug 3.5 04:20:51 12° S 04:21:40 13° SSE 04:23:11 10° SE visible
22 Aug 2.7 04:58:49 12° SW 05:01:05 23° SSE 05:03:44 10° ESE visible
23 Aug 3.0 04:04:23 19° SSE 04:04:23 19° SSE 04:06:34 10° ESE visible
24 Aug 2.3 04:42:20 20° SW 04:43:43 28° S 04:46:34 10° ESE visible
25 Aug 3.1 03:47:55 20° SE 03:47:55 20° SE 03:49:31 10° ESE visible
25 Aug 2.2 05:20:25 10° WSW 05:23:18 30° S 05:26:11 10° ESE visible
26 Aug 2.1 04:25:55 29° SSW 04:26:22 31° S 04:29:16 10° ESE visible
27 Aug 3.7 03:31:36 14° ESE 03:31:36 14° ESE 03:32:16 10° ESE visible
27 Aug 2.4 05:03:59 15° WSW 05:05:55 26° S 05:08:40 10° SE visible
